Pecos, TX

3:15 PM CDT on July 23, 2017 (GMT -0500)
Pecos Municipal

Weather History for KPEQ - November, 2011

Change the Weather History Date:

Thursday, November 10, 2011

  Actual Average Record
Temperature  
Mean Temperature 42 °F -  
Max Temperature 61 °F 73 °F 89 °F (1915)
Min Temperature 24 °F 38 °F 15 °F (1950)
Degree Days  
Heating Degree Days 22    
Moisture  
Dew Point 16 °F    
Average Humidity 37    
Maximum Humidity 60    
Minimum Humidity 17    
Precipitation  
Precipitation 0.00 in - - ()
Sea Level Pressure  
Sea Level Pressure 30.45 in    
Wind  
Wind Speed 3 mph (SW)    
Max Wind Speed 7 mph    
Max Gust Speed -    
Visibility 10 miles    
Events      
Averages and records for this station are not official NWS values.
T = Trace of Precipitation, MM = Missing Value Source: NWS Daily Summary

Daily Weather History Graph

Daily Weather History Graph

Search for Another Location

Airport or City:

Trip Planner

Search our weather history database for the weather conditions in past years. The results will help you decide how hot, cold, wet, or windy it might be!

Date:

Astronomy

Nov. 10, 2011 Rise Set
Actual Time 7:17 AM CST 5:58 PM CST
Civil Twilight 6:51 AM CST 6:23 PM CST
Nautical Twilight 6:22 AM CST 6:52 PM CST
Astronomical Twilight 5:53 AM CST 7:21 PM CST
Moon 5:51 PM CST (11/10) 7:08 AM CST (11/10)
Length of Visible Light 11h 32m
Length of Day
10h 41m
Full, 100% of the Moon is Illuminated
Nov 10
Full
Nov 10
Full
Nov 18
Last Quarter
Nov 25
New
Dec 2
First Quarter

Hourly Weather History & Observations

Time (CST) Temp. Windchill Dew Point Humidity Pressure Visibility Wind Dir Wind Speed Gust Speed Precip Events Conditions
12:15 AM 32.0 °F 27.5 °F 14.7 °F 49% 30.50 in 10.0 mi West 4.6 mph - N/A   Clear
12:35 AM 31.5 °F 26.8 °F 14.0 °F 49% 30.50 in 10.0 mi WNW 4.6 mph - N/A   Clear
12:55 AM 31.8 °F - 14.5 °F 49% 30.50 in 10.0 mi Calm Calm - N/A   Clear
1:15 AM 31.6 °F 28.3 °F 14.5 °F 49% 30.50 in 10.0 mi WSW 3.5 mph - N/A   Clear
1:35 AM 30.6 °F 27.1 °F 14.5 °F 51% 30.51 in 10.0 mi West 3.5 mph - N/A   Clear
1:55 AM 30.0 °F - 14.2 °F 52% 30.51 in 10.0 mi Calm Calm - N/A   Clear
2:15 AM 29.5 °F 24.5 °F 13.6 °F 52% 30.51 in 10.0 mi West 4.6 mph - N/A   Clear
2:35 AM 28.9 °F 23.9 °F 13.6 °F 53% 30.50 in 10.0 mi West 4.6 mph - N/A   Clear
3:15 AM 28.0 °F 24.2 °F 12.7 °F 53% 30.51 in 10.0 mi WSW 3.5 mph - N/A   Clear
3:35 AM 27.5 °F 23.6 °F 12.4 °F 53% 30.50 in 10.0 mi West 3.5 mph - N/A   Clear
3:55 AM 27.1 °F - 12.2 °F 53% 30.51 in 10.0 mi Calm Calm - N/A   Clear
4:15 AM 26.2 °F 18.6 °F 11.8 °F 55% 30.51 in 10.0 mi West 6.9 mph - N/A   Clear
4:35 AM 26.1 °F 19.4 °F 12.0 °F 55% 30.51 in 10.0 mi West 5.8 mph - N/A   Clear
4:55 AM 25.7 °F 20.1 °F 11.7 °F 55% 30.51 in 10.0 mi WNW 4.6 mph - N/A   Clear
5:15 AM 25.3 °F 18.5 °F 12.0 °F 57% 30.51 in 10.0 mi West 5.8 mph - N/A   Clear
5:55 AM 25.2 °F - 12.0 °F 58% 30.52 in 10.0 mi Calm Calm - N/A   Clear
6:15 AM 25.0 °F - 12.2 °F 58% 30.52 in 10.0 mi Calm Calm - N/A   Clear
6:35 AM 25.2 °F 20.9 °F 12.4 °F 58% 30.53 in 10.0 mi WSW 3.5 mph - N/A   Clear
6:55 AM 24.8 °F 19.1 °F 12.2 °F 59% 30.53 in 10.0 mi SW 4.6 mph - N/A   Clear
7:15 AM 24.3 °F 18.4 °F 11.8 °F 59% 30.53 in 10.0 mi WSW 4.6 mph - N/A   Clear
7:35 AM 24.4 °F 17.5 °F 12.2 °F 60% 30.53 in 10.0 mi SW 5.8 mph - N/A   Clear
7:55 AM 26.2 °F 20.7 °F 13.5 °F 59% 30.54 in 10.0 mi WSW 4.6 mph - N/A   Clear
8:35 AM 30.7 °F 27.3 °F 15.1 °F 52% 30.56 in 10.0 mi West 3.5 mph - N/A   Clear
8:55 AM 33.3 °F - 16.7 °F 51% 30.56 in 10.0 mi Calm Calm - N/A   Clear
9:15 AM 36.3 °F - 18.0 °F 47% 30.56 in 10.0 mi Calm Calm - N/A   Clear
9:35 AM 38.5 °F - 19.4 °F 46% 30.56 in 10.0 mi Calm Calm - N/A   Clear
9:55 AM 40.5 °F - 20.7 °F 45% 30.56 in 10.0 mi Calm Calm - N/A   Clear
10:15 AM 42.3 °F - 21.4 °F 43% 30.56 in 10.0 mi Calm Calm - N/A   Clear
10:35 AM 44.1 °F - 21.6 °F 41% 30.55 in 10.0 mi Calm Calm - N/A   Clear
10:55 AM 46.0 °F - 21.7 °F 38% 30.54 in 10.0 mi Calm Calm - N/A   Clear
11:15 AM 48.2 °F - 21.9 °F 36% 30.54 in 10.0 mi Calm Calm - N/A   Clear
11:55 AM 53.1 °F - 22.3 °F 30% 30.51 in 10.0 mi Calm Calm - N/A   Clear
12:15 PM 55.0 °F - 23.0 °F 29% 30.50 in 10.0 mi South 4.6 mph - N/A   Clear
12:35 PM 56.3 °F - 22.8 °F 27% 30.48 in 10.0 mi SSW 5.8 mph - N/A   Clear
12:55 PM 57.2 °F - 21.6 °F 25% 30.46 in 10.0 mi SE 5.8 mph - N/A   Clear
1:15 PM 58.3 °F - 19.8 °F 22% 30.44 in 10.0 mi SE 6.9 mph - N/A   Clear
1:35 PM 58.8 °F - 19.4 °F 22% 30.43 in 10.0 mi SSE 4.6 mph - N/A   Clear
1:55 PM 59.2 °F - 19.0 °F 21% 30.42 in 10.0 mi East 3.5 mph - N/A   Clear
2:15 PM 59.7 °F - 18.7 °F 20% 30.40 in 10.0 mi WSW 5.8 mph - N/A   Clear
2:35 PM 59.9 °F - 18.3 °F 20% 30.39 in 10.0 mi SW 4.6 mph - N/A   Clear
2:55 PM 60.3 °F - 17.6 °F 19% 30.38 in 10.0 mi South 4.6 mph - N/A   Clear
3:15 PM 60.6 °F - 16.3 °F 18% 30.37 in 10.0 mi SW 3.5 mph - N/A   Clear
3:35 PM 60.6 °F - 16.7 °F 18% 30.36 in 10.0 mi SE 4.6 mph - N/A   Clear
3:55 PM 61.2 °F - 16.0 °F 17% 30.35 in 10.0 mi SW 4.6 mph - N/A   Clear
4:15 PM 61.0 °F - 15.8 °F 17% 30.34 in 10.0 mi SE 4.6 mph - N/A   Clear
4:35 PM 60.6 °F - 16.0 °F 18% 30.34 in 10.0 mi Calm Calm - N/A   Clear
4:55 PM 59.9 °F - 16.5 °F 18% 30.33 in 10.0 mi NNW 3.5 mph - N/A   Clear
5:15 PM 59.9 °F - 16.5 °F 18% 30.32 in 10.0 mi Calm Calm - N/A   Clear
5:35 PM 59.2 °F - 16.3 °F 19% 30.32 in 10.0 mi Calm Calm - N/A   Clear
5:55 PM 58.1 °F - 16.0 °F 19% 30.31 in 10.0 mi Calm Calm - N/A   Clear
6:15 PM 56.7 °F - 15.8 °F 20% 30.31 in 10.0 mi Calm Calm - N/A   Clear
6:35 PM 55.0 °F - 15.8 °F 21% 30.31 in 10.0 mi NE 3.5 mph - N/A   Clear
6:55 PM 53.1 °F - 16.0 °F 23% 30.31 in 10.0 mi NE 3.5 mph - N/A   Clear
7:15 PM 50.9 °F - 15.3 °F 24% 30.30 in 10.0 mi ENE 5.8 mph - N/A   Clear
7:35 PM 48.4 °F - 13.8 °F 25% 30.31 in 10.0 mi Calm Calm - N/A   Clear
7:55 PM 47.3 °F - 13.8 °F 26% 30.31 in 10.0 mi ENE 3.5 mph - N/A   Clear
8:15 PM 47.3 °F - 14.0 °F 26% 30.31 in 10.0 mi East 5.8 mph - N/A   Clear
8:35 PM 45.5 °F - 13.6 °F 28% 30.31 in 10.0 mi Calm Calm - N/A   Clear
8:55 PM 45.9 °F 43.6 °F 14.0 °F 28% 30.31 in 10.0 mi ESE 4.6 mph - N/A   Clear
9:15 PM 44.8 °F 41.6 °F 13.8 °F 29% 30.31 in 10.0 mi ESE 5.8 mph - N/A   Clear
9:35 PM 41.9 °F 36.3 °F 12.4 °F 30% 30.30 in 10.0 mi ESE 9.2 mph - N/A   Clear
9:55 PM 39.4 °F 35.2 °F 11.3 °F 32% 30.30 in 10.0 mi SE 5.8 mph - N/A   Clear
10:15 PM 39.4 °F 35.2 °F 11.8 °F 32% 30.30 in 10.0 mi SSE 5.8 mph - N/A   Clear
10:35 PM 39.7 °F - 11.7 °F 32% 30.29 in 10.0 mi Calm Calm - N/A   Clear
10:55 PM 36.5 °F 31.8 °F 10.0 °F 34% 30.29 in 10.0 mi WNW 5.8 mph - N/A   Clear
11:15 PM 35.1 °F 30.1 °F 11.7 °F 38% 30.29 in 10.0 mi West 5.8 mph - N/A   Clear
11:35 PM 34.7 °F 29.6 °F 11.3 °F 38% 30.29 in 10.0 mi WSW 5.8 mph - N/A   Clear
11:55 PM 34.5 °F 28.6 °F 10.0 °F 36% 30.28 in 10.0 mi West 6.9 mph - N/A   Clear